Eola, IL (60519)

11:53 PM CST on February 11, 2016 (GMT -0600)
Oakhurst | | Change Station
CLOSE
Current Station
Personal Weather Station
Location: Aurora, IL
Elevation: 712 ft
Nearby Weather Stations

Elev 712 ft 41.76 °N, 88.25 °W | Updated 2 seconds ago

Partly Cloudy
Partly Cloudy
17.6 °F
Feels Like 18 °F
N
0.0
Wind Variable Wind from WNW
Gusts 0.0 mph

Today
High -- | Low -- °F
--% Chance of Precip.
Yesterday
High -- | Low -- °F
Precip. -- in
Pressure 30.29 in
Visibility 10.0 miles
Clouds Mostly Cloudy 7000 ft
Mostly Cloudy 12000 ft
Windchill 18 °F
Dew Point 2 °F
Humidity 49%
Rainfall 0.00 in
Snow Depth Not available.
6:54 AM 5:20 PM
Waxing Crescent, 17% visible
METAR KDPA 120452Z 20003KT 10SM BKN070 BKN120 M11/M15 A3024 RMK AO2 SLP255 T11111150
Pressure 30.29 in
Visibility 10.0 miles
Clouds Mostly Cloudy 7000 ft
Mostly Cloudy 12000 ft
Windchill 18 °F
Dew Point 2 °F
Humidity 49%
Rainfall 0.00 in
Snow Depth Not available.
6:54 AM 5:20 PM
Waxing Crescent, 17% visible
METAR KDPA 120452Z 20003KT 10SM BKN070 BKN120 M11/M15 A3024 RMK AO2 SLP255 T11111150

10-Day Weather Forecast

Almanac

Astronomy

Feb. 11, 2016 Rise Set
Actual Time
Civil Twilight
Nautical Twilight
Astronomical Twilight
Moon
Length of Visible Light
Length of Day
Tomorrow will be .
, % of the Moon is Illuminated

Today's Extremes

State Highs State Lows

Community

WunderPhotos

Upload Photos

1,892,269 photos uploaded!

WunderBlog® & News

Nearby

Air Quality

  Air Quality AQ Index Pollutant
Not available.

Snow Depth

Station Depth Elevation

Earthquake Activity

City Distance Mag. Time & Date
Minimum magnitude displayed is 2.5.

Coastal Water Temperatures

Place Temperature

Stations

Nearby Weather Stations

Station Location Temp. Windchill Dew Point Humidity Wind Precip. Elev Updated Type
                   

Watches & Warnings

There are currently no watches in effect.